TimeMDT,TemperatureF,Dew PointF,Humidity,Sea Level PressureIn,VisibilityMPH,Wind Direction,Wind SpeedMPH,Gust SpeedMPH,PrecipitationIn,Events,Conditions,WindDirDegrees,DateUTC
12:53 AM,63.0,54.0,72,29.88,10.0,North,9.2,-,N/A,,Clear,350,2013-08-07 06:53:00
1:53 AM,62.1,53.1,72,29.89,10.0,NNE,6.9,-,N/A,,Clear,20,2013-08-07 07:53:00
2:53 AM,60.1,53.1,78,29.90,10.0,SW,3.5,-,N/A,,Clear,220,2013-08-07 08:53:00
3:53 AM,60.1,52.0,75,29.91,10.0,Calm,Calm,-,N/A,,Mostly Cloudy,0,2013-08-07 09:53:00
4:53 AM,55.9,52.0,87,29.93,10.0,West,4.6,-,N/A,,Partly Cloudy,280,2013-08-07 10:53:00
5:53 AM,57.9,52.0,81,29.93,10.0,ENE,4.6,-,N/A,,Clear,70,2013-08-07 11:53:00
6:53 AM,57.9,52.0,81,29.94,10.0,NNE,6.9,-,N/A,,Clear,30,2013-08-07 12:53:00
7:53 AM,62.1,54.0,75,29.95,10.0,ENE,8.1,-,N/A,,Clear,70,2013-08-07 13:53:00
8:53 AM,68.0,54.0,61,29.94,10.0,ENE,5.8,-,N/A,,Clear,60,2013-08-07 14:53:00
9:53 AM,71.1,52.0,51,29.92,10.0,ENE,5.8,-,N/A,,Clear,70,2013-08-07 15:53:00
10:53 AM,75.0,50.0,41,29.91,10.0,Variable,6.9,-,N/A,,Clear,0,2013-08-07 16:53:00
11:53 AM,79.0,51.1,38,29.89,10.0,SSE,11.5,20.7,N/A,,Clear,160,2013-08-07 17:53:00
12:53 PM,81.0,52.0,36,29.87,10.0,South,11.5,20.7,N/A,,Scattered Clouds,180,2013-08-07 18:53:00
1:53 PM,75.9,51.1,42,29.88,10.0,South,15.0,-,N/A,,Clear,180,2013-08-07 19:53:00
2:48 PM,60.8,55.4,82,30.16,7.0,WSW,20.7,29.9,0.00,Rain,Rain,240,2013-08-07 20:48:00
2:53 PM,61.0,57.0,87,29.96,6.0,WSW,16.1,26.5,0.02,Rain,Rain,240,2013-08-07 20:53:00
3:53 PM,63.0,54.0,72,29.93,10.0,NNW,9.2,-,0.04,Rain,Light Rain,340,2013-08-07 21:53:00
4:53 PM,69.1,54.0,58,29.91,10.0,North,6.9,-,0.00,,Partly Cloudy,10,2013-08-07 22:53:00
5:53 PM,73.0,54.0,51,29.85,10.0,NE,11.5,-,N/A,,Clear,50,2013-08-07 23:53:00
6:53 PM,68.0,55.9,65,29.90,10.0,North,12.7,19.6,N/A,,Mostly Cloudy,360,2013-08-08 00:53:00
7:53 PM,63.0,55.0,75,29.92,9.0,North,10.4,-,0.00,Rain,Light Rain,10,2013-08-08 01:53:00
8:53 PM,62.1,57.0,84,29.93,10.0,North,10.4,-,0.03,Rain,Light Rain,360,2013-08-08 02:53:00
9:53 PM,60.1,55.9,86,29.94,8.0,North,3.5,-,0.01,Rain,Rain,10,2013-08-08 03:53:00
10:53 PM,59.0,55.9,90,29.93,10.0,ENE,4.6,-,0.02,,Clear,70,2013-08-08 04:53:00
11:53 PM,57.9,55.0,90,29.89,10.0,NNW,4.6,-,N/A,,Clear,340,2013-08-08 05:53:00